Location: Gleizolles
(44.4833°N, 6.7667°E)
Time: 15:31:43
(UTC+00:00)

Tiros 1 - Pass Details

Date: 29 June 2024
Orbit: 624 x 656 km, 48.4° (Epoch: 13 July)

Event Time Altitude Azimuth Distance (km) Brightness Sun altitude
Rises 22:27:40 0° 264° (W) 2,899 10.6 -20.5°
Reaches altitude 10° 22:30:00 10° 268° (W) 1,993 9.8 -20.7°
Maximum altitude 22:34:31 59° 348° (NNW) 724 7.6 -20.9°
Drops below altitude 10° 22:39:05 10° 69° (ENE) 2,002 9.7 -21.1°
Sets 22:41:26 0° 73° (ENE) 2,914 10.6 -21.2°
